TimeCDT,TemperatureF,Dew PointF,Humidity,Sea Level PressureIn,VisibilityMPH,Wind Direction,Wind SpeedMPH,Gust SpeedMPH,PrecipitationIn,Events,Conditions,WindDirDegrees,DateUTC
12:15 AM,63.7,62.2,95,29.98,5.0,Calm,Calm,-,N/A,,Clear,0,2013-09-28 05:15:00
12:35 AM,63.7,62.2,95,29.98,5.0,Calm,Calm,-,N/A,,Clear,0,2013-09-28 05:35:00
12:55 AM,63.5,61.9,94,29.98,10.0,Calm,Calm,-,N/A,,Clear,0,2013-09-28 05:55:00
1:15 AM,63.7,62.1,94,29.98,7.0,Calm,Calm,-,N/A,,Clear,0,2013-09-28 06:15:00
1:35 AM,63.3,61.7,94,29.98,7.0,Calm,Calm,-,N/A,,Clear,0,2013-09-28 06:35:00
1:55 AM,63.0,61.7,96,29.98,4.0,Calm,Calm,-,N/A,,Clear,0,2013-09-28 06:55:00
2:15 AM,62.2,60.8,95,29.98,5.0,Calm,Calm,-,N/A,,Clear,0,2013-09-28 07:15:00
2:35 AM,62.6,61.2,95,29.97,5.0,Calm,Calm,-,N/A,,Clear,0,2013-09-28 07:35:00
2:55 AM,62.6,61.2,95,29.97,5.0,Calm,Calm,-,N/A,,Clear,0,2013-09-28 07:55:00
3:15 AM,63.0,61.3,94,29.97,7.0,Calm,Calm,-,N/A,,Clear,0,2013-09-28 08:15:00
3:35 AM,63.0,61.7,96,29.97,5.0,Calm,Calm,-,N/A,,Clear,0,2013-09-28 08:35:00
3:55 AM,63.0,61.5,95,29.97,4.0,Calm,Calm,-,N/A,,Clear,0,2013-09-28 08:55:00
4:15 AM,62.8,61.3,95,29.97,1.5,Calm,Calm,-,N/A,,Mist,0,2013-09-28 09:15:00
4:35 AM,62.6,61.5,96,29.98,5.0,Calm,Calm,-,N/A,,Clear,0,2013-09-28 09:35:00
4:55 AM,62.4,61.2,96,29.98,4.0,Calm,Calm,-,N/A,,Clear,0,2013-09-28 09:55:00
5:15 AM,62.6,61.3,96,29.99,2.0,Calm,Calm,-,N/A,,Clear,0,2013-09-28 10:15:00
5:35 AM,63.0,61.7,96,29.99,3.0,Calm,Calm,-,N/A,,Clear,0,2013-09-28 10:35:00
5:55 AM,62.6,61.3,96,29.99,2.0,Calm,Calm,-,N/A,,Overcast,0,2013-09-28 10:55:00
6:15 AM,62.6,61.3,96,30.00,5.0,Calm,Calm,-,N/A,,Overcast,0,2013-09-28 11:15:00
6:35 AM,62.1,60.8,96,30.01,5.0,Calm,Calm,-,N/A,,Overcast,0,2013-09-28 11:35:00
6:55 AM,62.8,61.3,95,30.01,4.0,Calm,Calm,-,N/A,,Overcast,0,2013-09-28 11:55:00
7:15 AM,63.3,62.1,96,30.02,2.5,Calm,Calm,-,N/A,,Overcast,0,2013-09-28 12:15:00
7:35 AM,64.8,63.3,95,30.02,2.5,Calm,Calm,-,N/A,,Overcast,0,2013-09-28 12:35:00
7:55 AM,66.9,65.5,95,30.03,2.0,Calm,Calm,-,N/A,,Overcast,0,2013-09-28 12:55:00
8:15 AM,68.9,67.5,95,30.03,2.5,Calm,Calm,-,N/A,,Overcast,0,2013-09-28 13:15:00
8:35 AM,69.8,68.4,95,30.03,4.0,Calm,Calm,-,N/A,,Overcast,0,2013-09-28 13:35:00
8:55 AM,72.1,69.8,92,30.04,7.0,Calm,Calm,-,N/A,,Overcast,0,2013-09-28 13:55:00
9:15 AM,73.0,70.0,90,30.04,10.0,East,3.5,-,N/A,,Overcast,100,2013-09-28 14:15:00
9:35 AM,76.3,71.1,84,30.05,10.0,SE,5.8,-,N/A,,Mostly Cloudy,130,2013-09-28 14:35:00
9:55 AM,77.2,70.9,81,30.05,10.0,ESE,4.6,-,N/A,,Mostly Cloudy,110,2013-09-28 14:55:00
10:15 AM,78.6,70.5,76,30.06,10.0,SE,5.8,-,N/A,,Scattered Clouds,130,2013-09-28 15:15:00
10:35 AM,80.4,70.5,72,30.06,10.0,SSE,5.8,-,N/A,,Scattered Clouds,150,2013-09-28 15:35:00
10:55 AM,80.4,70.2,71,30.06,10.0,SSE,4.6,-,N/A,,Mostly Cloudy,150,2013-09-28 15:55:00
11:15 AM,81.9,70.9,69,30.06,10.0,SE,5.8,-,N/A,,Mostly Cloudy,130,2013-09-28 16:15:00
11:35 AM,82.6,71.1,68,30.06,10.0,SSE,5.8,-,N/A,,Mostly Cloudy,160,2013-09-28 16:35:00
11:55 AM,81.1,70.3,70,30.05,10.0,SE,4.6,-,N/A,,Mostly Cloudy,130,2013-09-28 16:55:00
12:15 PM,82.0,70.9,69,30.05,10.0,South,3.5,-,N/A,,Mostly Cloudy,180,2013-09-28 17:15:00
12:35 PM,83.5,70.3,64,30.04,10.0,SE,4.6,-,N/A,,Mostly Cloudy,140,2013-09-28 17:35:00
12:55 PM,84.0,70.3,63,30.03,10.0,ESE,3.5,-,N/A,,Mostly Cloudy,110,2013-09-28 17:55:00
1:15 PM,87.8,71.1,57,30.02,10.0,SSE,6.9,-,N/A,,Mostly Cloudy,160,2013-09-28 18:15:00
1:35 PM,83.5,70.3,64,30.01,10.0,SE,4.6,-,N/A,,Overcast,140,2013-09-28 18:35:00
1:55 PM,83.3,71.2,67,30.01,10.0,South,3.5,-,N/A,,Overcast,180,2013-09-28 18:55:00
2:15 PM,83.7,71.2,66,30.00,10.0,ESE,4.6,-,N/A,,Overcast,120,2013-09-28 19:15:00
2:35 PM,84.2,70.3,63,29.99,10.0,East,3.5,-,N/A,,Mostly Cloudy,90,2013-09-28 19:35:00
2:55 PM,82.6,69.8,65,29.99,10.0,SE,4.6,-,N/A,,Scattered Clouds,130,2013-09-28 19:55:00
3:15 PM,86.4,68.5,55,29.98,10.0,SSE,9.2,-,N/A,,Mostly Cloudy,150,2013-09-28 20:15:00
3:35 PM,83.3,68.9,62,29.98,10.0,SSE,4.6,-,N/A,,Scattered Clouds,150,2013-09-28 20:35:00
3:55 PM,84.7,70.7,63,29.98,10.0,SE,5.8,-,N/A,,Scattered Clouds,140,2013-09-28 20:55:00
4:15 PM,84.7,69.1,59,29.98,10.0,SSE,4.6,-,N/A,,Scattered Clouds,150,2013-09-28 21:15:00
4:35 PM,83.5,69.3,62,29.98,10.0,Calm,Calm,-,N/A,,Mostly Cloudy,0,2013-09-28 21:35:00
4:55 PM,82.8,71.1,68,29.97,10.0,SSE,3.5,-,N/A,,Overcast,160,2013-09-28 21:55:00
5:15 PM,81.9,71.4,70,29.96,10.0,SSE,3.5,-,N/A,,Overcast,150,2013-09-28 22:15:00
5:35 PM,81.5,71.1,70,29.97,10.0,Calm,Calm,-,N/A,,Overcast,0,2013-09-28 22:35:00
5:55 PM,80.6,71.4,73,29.97,10.0,Calm,Calm,-,N/A,,Overcast,0,2013-09-28 22:55:00
6:15 PM,81.3,71.2,71,29.97,10.0,Calm,Calm,-,N/A,,Mostly Cloudy,0,2013-09-28 23:15:00
6:35 PM,79.0,70.7,76,29.97,10.0,Calm,Calm,-,N/A,,Scattered Clouds,0,2013-09-28 23:35:00
6:55 PM,76.1,71.8,86,29.98,10.0,Calm,Calm,-,N/A,,Mostly Cloudy,0,2013-09-28 23:55:00
7:15 PM,74.7,71.6,90,29.98,10.0,Calm,Calm,-,N/A,,Scattered Clouds,0,2013-09-29 00:15:00
7:35 PM,73.6,70.2,89,29.99,10.0,Calm,Calm,-,N/A,,Clear,0,2013-09-29 00:35:00
7:55 PM,72.5,70.0,92,30.00,10.0,Calm,Calm,-,N/A,,Mostly Cloudy,0,2013-09-29 00:55:00
8:15 PM,72.1,70.2,93,30.00,10.0,Calm,Calm,-,N/A,,Mostly Cloudy,0,2013-09-29 01:15:00
8:35 PM,71.6,69.8,94,30.01,7.0,Calm,Calm,-,N/A,,Scattered Clouds,0,2013-09-29 01:35:00
8:55 PM,71.1,69.1,93,30.01,10.0,Calm,Calm,-,N/A,,Clear,0,2013-09-29 01:55:00
9:15 PM,70.7,68.9,94,30.02,7.0,Calm,Calm,-,N/A,,Clear,0,2013-09-29 02:15:00
9:35 PM,70.7,68.7,93,30.03,10.0,Calm,Calm,-,N/A,,Mostly Cloudy,0,2013-09-29 02:35:00
9:55 PM,71.2,69.3,93,30.03,7.0,Calm,Calm,-,N/A,,Overcast,0,2013-09-29 02:55:00
10:15 PM,71.4,69.6,94,30.03,7.0,Calm,Calm,-,N/A,,Overcast,0,2013-09-29 03:15:00
10:35 PM,71.2,69.1,93,30.03,10.0,Calm,Calm,-,N/A,,Overcast,0,2013-09-29 03:35:00
10:55 PM,71.6,68.9,91,30.02,10.0,SE,3.5,-,N/A,,Mostly Cloudy,140,2013-09-29 03:55:00
11:15 PM,72.0,68.9,90,30.03,10.0,Calm,Calm,-,N/A,,Scattered Clouds,0,2013-09-29 04:15:00
11:35 PM,70.0,68.2,94,30.03,7.0,Calm,Calm,-,N/A,,Scattered Clouds,0,2013-09-29 04:35:00
11:55 PM,69.8,68.0,94,30.02,5.0,Calm,Calm,-,N/A,,Mostly Cloudy,0,2013-09-29 04:55:00